Location: Unspecified
(0.0000°N, 0.0000°E)
Time: 22:38:38
(UTC+02:00)

Haruka - Visible Passes

Search period start: 01 October 2016 00:00
Search period end: 11 October 2016 00:00
Orbit: 537 x 21225 km, 31.3° (Epoch: 30 September)

Date Brightness Start Highest point End Pass type
(mag) Time Alt. Az. Time Alt. Az. Time Alt. Az.
01 Oct 6.3 04:29:59 62° N 04:29:59 62° N 07:51:41 10° ENE visible
02 Oct 6.6 05:34:35 40° WNW 05:44:07 51° NNW 10:22:16 10° E visible
03 Oct 7.1 06:39:12 17° WNW 07:11:19 46° N 11:49:21 10° E visible
05 Oct 7.3 02:32:15 27° ENE 02:32:15 27° ENE 02:50:52 10° ENE visible
06 Oct 6.7 03:36:52 49° NE 03:36:52 49° NE 04:41:57 10° NE visible
07 Oct 6.6 04:41:28 51° NNW 04:42:43 51° NNW 08:59:10 10° ENE visible
08 Oct 6.9 05:46:04 31° NW 06:02:07 45° N 10:44:25 10° E visible
09 Oct 7.4 06:50:40 12° WNW 10:30:32 50° NE 12:04:44 10° ESE visible
10 Oct 7.8 01:39:06 13° ENE 01:39:06 13° ENE 01:41:53 10° ENE visible
